Location: Unspecified
(64.9000°N, 0.0000°E)
Time: 15:19:24
(UTC+00:00)

A-11 Canister half - Pass Details

Date: 16 June 2019
Orbit: 1526 x 1683 km, 47.3° (Epoch: 21 August)

Event Time Altitude Azimuth Distance (km) Brightness Sun altitude
Rises 07:01:17 0° 216° (SW) 4,692 11.3 27.4°
Reaches altitude 10° 07:05:13 10° 201° (SSW) 3,699 10.9 27.8°
Maximum altitude 07:11:39 22° 157° (SSE) 2,889 11.0 28.5°
Drops below altitude 10° 07:18:06 10° 112° (ESE) 3,705 12.5 29.2°
Sets 07:22:02 0° 98° (E) 4,701 12.8 29.6°
